AUA425X LOWW-LEPA

Flight info

Callsign AUA425X
Flight time N/A
Altitude 36000
Route OSPEN DCT ABRUK DCT SETAL DCT DETSA/N0441F350 DCT PIDAD DCT TALEP DCT RARQU DCT BALEN UT250 RIXOT
Aircraft A320/M-SDE3FGHIRWY/LB1

Departure

Time 2026-04-30 13:32
Airport Vienna International Airport (LOWW)

Arrival

Time N/A
Airport Palma de Mallorca Airport (LEPA)
Time Latitude Longitude Altitude Speed Heading
2026-04-30 12:51 48.11728 16.56737 626 ft 0 kts 26°
2026-04-30 13:23 48.11719 16.56731 609 ft 3 kts 27°
2026-04-30 13:24 48.11678 16.56693 616 ft 3 kts 45°
2026-04-30 13:24 48.11665 16.56653 624 ft 1 kts 116°
2026-04-30 13:26 48.11666 16.56653 624 ft 0 kts 116°
2026-04-30 13:26 48.11665 16.56653 624 ft 1 kts 116°
2026-04-30 13:27 48.11594 16.56874 609 ft 15 kts 116°
2026-04-30 13:28 48.11479 16.57226 614 ft 10 kts 116°
2026-04-30 13:28 48.11397 16.57389 619 ft 13 kts 181°
2026-04-30 13:28 48.11323 16.57339 617 ft 11 kts 206°
2026-04-30 13:29 48.11190 16.57332 614 ft 11 kts 118°
2026-04-30 13:29 48.11125 16.57533 609 ft 13 kts 116°
2026-04-30 13:30 48.10954 16.57581 611 ft 8 kts 208°
2026-04-30 13:31 48.10956 16.57404 618 ft 12 kts 295°
2026-04-30 13:31 48.11879 16.54578 637 ft 177 kts 297°
2026-04-30 13:32 48.11941 16.51049 1993 ft 190 kts 230°
2026-04-30 13:32 48.09530 16.48585 2627 ft 236 kts 211°
2026-04-30 13:33 48.06550 16.45597 3600 ft 273 kts 220°
2026-04-30 13:33 48.03619 16.41940 5355 ft 278 kts 222°
2026-04-30 13:34 48.02151 16.40023 6187 ft 283 kts 222°
2026-04-30 13:34 47.98029 16.33477 8561 ft 294 kts 229°
2026-04-30 13:35 47.96659 16.31181 9348 ft 299 kts 229°
2026-04-30 13:35 47.93860 16.26509 10664 ft 315 kts 229°
2026-04-30 13:36 47.90723 16.21309 11204 ft 354 kts 229°
2026-04-30 13:36 47.89057 16.18560 11823 ft 360 kts 229°
2026-04-30 13:36 47.85648 16.12966 13202 ft 368 kts 229°
2026-04-30 13:37 47.84504 16.11093 13678 ft 371 kts 229°
2026-04-30 13:37 47.81006 16.05354 14936 ft 378 kts 229°
2026-04-30 13:38 47.76841 15.98537 16283 ft 388 kts 229°
2026-04-30 13:38 47.75608 15.96527 16661 ft 391 kts 229°
2026-04-30 13:38 47.71927 15.90548 17775 ft 399 kts 229°
2026-04-30 13:39 47.68155 15.84419 18791 ft 407 kts 229°
2026-04-30 13:39 47.63669 15.77142 19960 ft 414 kts 229°
2026-04-30 13:40 47.62355 15.75013 20278 ft 417 kts 229°
2026-04-30 13:40 47.60411 15.71865 20780 ft 420 kts 229°
2026-04-30 13:40 47.58431 15.68670 21291 ft 423 kts 229°
2026-04-30 13:40 47.56433 15.65451 21795 ft 426 kts 229°
2026-04-30 13:41 47.54416 15.62207 22290 ft 429 kts 229°
2026-04-30 13:41 47.51727 15.57885 22910 ft 433 kts 232°
2026-04-30 13:41 47.49760 15.54499 23369 ft 434 kts 239°
2026-04-30 13:41 47.48660 15.51965 23748 ft 431 kts 248°
2026-04-30 13:42 47.47537 15.47947 24168 ft 428 kts 260°
2026-04-30 13:42 47.46822 15.43676 24448 ft 432 kts 263°
2026-04-30 13:42 47.45305 15.34947 24818 ft 444 kts 261°
2026-04-30 13:43 47.44440 15.30571 25311 ft 442 kts 259°
2026-04-30 13:43 47.43537 15.26252 25814 ft 440 kts 259°
2026-04-30 13:43 47.42638 15.21931 26145 ft 441 kts 259°
2026-04-30 13:43 47.41755 15.17648 26474 ft 442 kts 260°
2026-04-30 13:44 47.40869 15.13293 26839 ft 444 kts 260°
2026-04-30 13:44 47.40002 15.08895 27056 ft 448 kts 261°
2026-04-30 13:44 47.39150 15.04456 27234 ft 453 kts 261°
2026-04-30 13:44 47.38292 14.99962 27484 ft 456 kts 261°
2026-04-30 13:45 47.36530 14.90983 28167 ft 459 kts 260°
2026-04-30 13:45 47.35706 14.86918 28470 ft 460 kts 260°
2026-04-30 13:45 47.34772 14.82404 28796 ft 462 kts 259°
2026-04-30 13:46 47.33832 14.77863 29082 ft 464 kts 260°
2026-04-30 13:46 47.32896 14.73355 29268 ft 468 kts 256°
2026-04-30 13:46 47.31932 14.68746 29405 ft 472 kts 256°
2026-04-30 13:46 47.30972 14.64098 29536 ft 477 kts 256°
2026-04-30 13:47 47.30012 14.59395 29691 ft 481 kts 256°
2026-04-30 13:47 47.29050 14.54658 29901 ft 484 kts 257°
2026-04-30 13:47 47.28084 14.49899 30105 ft 487 kts 256°
2026-04-30 13:47 47.27111 14.45110 30312 ft 489 kts 257°
2026-04-30 13:48 47.26135 14.40308 30502 ft 491 kts 257°
2026-04-30 13:48 47.25163 14.35538 30694 ft 493 kts 257°
2026-04-30 13:48 47.24173 14.30720 30979 ft 492 kts 256°
2026-04-30 13:48 47.23182 14.25923 31248 ft 491 kts 256°
2026-04-30 13:49 47.22186 14.21112 31523 ft 490 kts 257°
2026-04-30 13:49 47.21191 14.16326 31809 ft 488 kts 257°
2026-04-30 13:49 47.20199 14.11559 32094 ft 487 kts 256°
2026-04-30 13:49 47.19206 14.06804 32382 ft 486 kts 256°
2026-04-30 13:50 47.18213 14.02053 32621 ft 486 kts 256°
2026-04-30 13:50 47.16246 13.92661 33224 ft 483 kts 256°
2026-04-30 13:50 47.15259 13.87952 33512 ft 481 kts 257°
2026-04-30 13:51 47.14271 13.83273 33799 ft 480 kts 256°
2026-04-30 13:51 47.13279 13.78605 34073 ft 478 kts 256°
2026-04-30 13:51 47.12287 13.73951 34332 ft 477 kts 256°
2026-04-30 13:51 47.11307 13.69356 34565 ft 476 kts 256°
2026-04-30 13:52 47.10312 13.64677 34802 ft 475 kts 256°
2026-04-30 13:52 47.09345 13.60134 35016 ft 474 kts 256°
2026-04-30 13:52 47.08352 13.55467 35223 ft 473 kts 256°
2026-04-30 13:52 47.07376 13.50898 35449 ft 472 kts 256°
2026-04-30 13:53 47.06394 13.46317 35654 ft 471 kts 256°
2026-04-30 13:53 47.05408 13.41733 35875 ft 470 kts 256°
2026-04-30 13:53 47.04422 13.37162 36030 ft 470 kts 256°
2026-04-30 13:53 47.03449 13.32661 36199 ft 470 kts 256°
2026-04-30 13:54 47.01462 13.23501 36261 ft 468 kts 256°
2026-04-30 13:54 46.99490 13.14432 36248 ft 467 kts 256°
2026-04-30 13:55 46.97519 13.05426 36250 ft 467 kts 256°
2026-04-30 13:55 46.95534 12.96411 36245 ft 467 kts 256°
2026-04-30 13:56 46.93531 12.87329 36217 ft 467 kts 256°
2026-04-30 13:56 46.91519 12.78254 36203 ft 470 kts 256°
2026-04-30 13:57 46.89501 12.69219 36197 ft 471 kts 256°
2026-04-30 13:57 46.87467 12.60098 36206 ft 472 kts 256°
2026-04-30 13:58 46.84398 12.46422 36228 ft 472 kts 255°
2026-04-30 13:59 46.82404 12.37621 36248 ft 472 kts 255°
2026-04-30 13:59 46.79628 12.28896 36263 ft 479 kts 238°
2026-04-30 14:00 46.75062 12.21838 36265 ft 484 kts 221°
2026-04-30 14:00 46.67295 12.12469 36265 ft 484 kts 221°
2026-04-30 14:01 46.62098 12.06219 36250 ft 484 kts 221°
2026-04-30 14:01 46.56897 11.99988 36231 ft 484 kts 221°
2026-04-30 14:02 46.51713 11.93783 36206 ft 484 kts 221°
2026-04-30 14:02 46.46496 11.87568 36194 ft 484 kts 221°
2026-04-30 14:03 46.41296 11.81384 36207 ft 483 kts 221°
2026-04-30 14:03 46.36138 11.75268 36201 ft 483 kts 221°
2026-04-30 14:04 46.30941 11.69121 36204 ft 482 kts 221°
2026-04-30 14:04 46.25745 11.62984 36216 ft 483 kts 221°
2026-04-30 14:05 46.20554 11.56844 36224 ft 482 kts 222°
2026-04-30 14:05 46.15388 11.50769 36259 ft 482 kts 221°
2026-04-30 14:06 46.07585 11.41650 36272 ft 481 kts 221°
2026-04-30 14:07 45.99838 11.32621 36288 ft 480 kts 221°
2026-04-30 14:08 45.92054 11.23568 36293 ft 479 kts 221°
2026-04-30 14:08 45.84274 11.14553 36299 ft 478 kts 221°
2026-04-30 14:09 45.79119 11.08600 36297 ft 477 kts 222°
2026-04-30 14:10 45.71372 10.99694 36293 ft 476 kts 221°
2026-04-30 14:10 45.66204 10.93796 36481 ft 472 kts 221°
2026-04-30 14:10 45.63607 10.90960 36730 ft 470 kts 220°
2026-04-30 14:11 45.60979 10.88180 36993 ft 468 kts 219°
2026-04-30 14:11 45.58354 10.85455 37208 ft 466 kts 219°
2026-04-30 14:11 45.55723 10.82740 37273 ft 468 kts 219°
2026-04-30 14:12 45.50488 10.77289 37274 ft 470 kts 220°
2026-04-30 14:12 45.45242 10.71750 37274 ft 470 kts 220°
2026-04-30 14:13 45.39989 10.66194 37276 ft 470 kts 220°
2026-04-30 14:13 45.34729 10.60675 37275 ft 470 kts 220°
2026-04-30 14:14 45.29450 10.55168 37274 ft 470 kts 220°
2026-04-30 14:14 45.24214 10.49702 37275 ft 470 kts 220°
2026-04-30 14:15 45.18935 10.44202 37273 ft 470 kts 220°
2026-04-30 14:15 45.13668 10.38729 37271 ft 470 kts 219°
2026-04-30 14:16 45.08402 10.33281 37270 ft 468 kts 219°
2026-04-30 14:16 45.03144 10.27858 37269 ft 467 kts 219°
2026-04-30 14:17 44.97937 10.22490 37270 ft 465 kts 219°
2026-04-30 14:17 44.92716 10.17110 37271 ft 464 kts 219°
2026-04-30 14:18 44.87505 10.11772 37269 ft 462 kts 219°
2026-04-30 14:18 44.79712 10.03807 37264 ft 461 kts 220°
2026-04-30 14:19 44.71941 9.95868 37255 ft 459 kts 220°
2026-04-30 14:20 44.66804 9.90639 37240 ft 459 kts 220°
2026-04-30 14:20 44.59052 9.82772 37232 ft 458 kts 220°
2026-04-30 14:21 44.53890 9.77546 37217 ft 457 kts 220°
2026-04-30 14:22 44.46153 9.69749 37211 ft 456 kts 220°
2026-04-30 14:22 44.38465 9.62024 37208 ft 455 kts 220°
2026-04-30 14:23 44.28187 9.51730 37198 ft 454 kts 220°
2026-04-30 14:24 44.20531 9.44078 37190 ft 454 kts 220°
2026-04-30 14:25 44.10261 9.33872 37188 ft 453 kts 220°
2026-04-30 14:26 44.02607 9.26297 37196 ft 452 kts 220°
2026-04-30 14:27 43.94922 9.18719 37195 ft 451 kts 220°
2026-04-30 14:27 43.89808 9.13693 37194 ft 450 kts 220°
2026-04-30 14:28 43.82154 9.06180 37196 ft 449 kts 220°
2026-04-30 14:28 43.77064 9.01197 37198 ft 448 kts 220°
2026-04-30 14:29 43.66937 8.91313 37194 ft 446 kts 220°
2026-04-30 14:31 43.54263 8.79005 37193 ft 445 kts 220°
2026-04-30 14:31 43.46716 8.71693 37194 ft 443 kts 222°
2026-04-30 14:32 43.39841 8.63317 37188 ft 439 kts 226°
2026-04-30 14:33 43.35298 8.57693 37189 ft 439 kts 226°
2026-04-30 14:33 43.28518 8.49336 37182 ft 439 kts 226°
2026-04-30 14:34 43.23974 8.43755 37180 ft 438 kts 226°
2026-04-30 14:34 43.19434 8.38182 37176 ft 438 kts 226°
2026-04-30 14:35 43.12656 8.29887 37167 ft 437 kts 226°
2026-04-30 14:36 43.08124 8.24362 37165 ft 436 kts 226°
2026-04-30 14:36 43.03628 8.18891 37157 ft 436 kts 226°
2026-04-30 14:37 42.99066 8.13343 37162 ft 435 kts 226°
2026-04-30 14:37 42.94553 8.07861 37150 ft 434 kts 226°
2026-04-30 14:38 42.90082 8.02445 37154 ft 433 kts 226°
2026-04-30 14:38 42.85566 7.96985 37144 ft 433 kts 226°
2026-04-30 14:39 42.81066 7.91548 37148 ft 432 kts 226°
2026-04-30 14:39 42.76564 7.86142 37142 ft 431 kts 226°
2026-04-30 14:40 42.69856 7.78095 37140 ft 430 kts 226°
2026-04-30 14:40 42.65367 7.72716 37139 ft 429 kts 226°
2026-04-30 14:41 42.60902 7.67380 37139 ft 428 kts 226°
2026-04-30 14:41 42.56437 7.62057 37136 ft 427 kts 226°
2026-04-30 14:42 42.52001 7.56783 37138 ft 426 kts 226°
2026-04-30 14:42 42.47551 7.51487 37134 ft 425 kts 226°
2026-04-30 14:43 42.43106 7.46212 37135 ft 425 kts 226°
2026-04-30 14:43 42.38686 7.40983 37138 ft 425 kts 226°
2026-04-30 14:44 42.34233 7.35735 37133 ft 424 kts 226°
2026-04-30 14:44 42.29789 7.30500 37133 ft 424 kts 227°
2026-04-30 14:45 42.25353 7.25272 37136 ft 423 kts 227°
2026-04-30 14:45 42.20907 7.20055 37137 ft 423 kts 227°
2026-04-30 14:46 42.16470 7.14847 37137 ft 423 kts 227°
2026-04-30 14:46 42.12062 7.09683 37125 ft 423 kts 227°
2026-04-30 14:47 42.07633 7.04521 37134 ft 422 kts 227°
2026-04-30 14:47 42.03193 6.99353 37124 ft 421 kts 227°
2026-04-30 14:48 41.98804 6.94141 37129 ft 419 kts 228°
2026-04-30 14:48 41.94546 6.88867 37133 ft 419 kts 229°
2026-04-30 14:49 41.90273 6.83567 37107 ft 418 kts 229°
2026-04-30 14:49 41.85981 6.78298 37123 ft 418 kts 228°
2026-04-30 14:50 41.79559 6.70490 37117 ft 417 kts 228°
2026-04-30 14:51 41.73127 6.62676 37114 ft 416 kts 228°
2026-04-30 14:52 41.66715 6.54897 37113 ft 416 kts 229°
2026-04-30 14:52 41.60277 6.47115 37105 ft 416 kts 228°
2026-04-30 14:53 41.53840 6.39356 37104 ft 416 kts 228°
2026-04-30 14:54 41.45278 6.29051 37101 ft 416 kts 228°
2026-04-30 14:55 41.38826 6.21338 37101 ft 415 kts 228°
2026-04-30 14:56 41.30246 6.11076 37097 ft 414 kts 228°
2026-04-30 14:57 41.23834 6.03447 37097 ft 414 kts 228°
2026-04-30 14:58 41.15244 5.93270 37094 ft 414 kts 228°
2026-04-30 14:58 41.08790 5.85626 37092 ft 414 kts 228°
2026-04-30 15:00 40.98043 5.72977 37086 ft 415 kts 227°
2026-04-30 15:00 40.93959 5.67666 37087 ft 406 kts 238°
2026-04-30 15:01 40.90707 5.61579 37085 ft 405 kts 240°
2026-04-30 15:01 40.85890 5.52614 36919 ft 399 kts 239°
2026-04-30 15:02 40.84266 5.49594 35848 ft 408 kts 239°
2026-04-30 15:02 40.82632 5.46553 35432 ft 400 kts 239°
2026-04-30 15:03 40.78012 5.37987 34986 ft 385 kts 239°
2026-04-30 15:03 40.74864 5.32101 34455 ft 398 kts 239°
2026-04-30 15:04 40.71641 5.26136 33170 ft 395 kts 239°
2026-04-30 15:04 40.66923 5.17490 31670 ft 381 kts 239°
2026-04-30 15:05 40.62392 5.09143 30236 ft 371 kts 238°
2026-04-30 15:06 40.59406 5.03666 29247 ft 363 kts 238°
2026-04-30 15:06 40.56496 4.98346 28340 ft 355 kts 238°
2026-04-30 15:07 40.53644 4.93125 27465 ft 348 kts 238°
2026-04-30 15:07 40.50868 4.88057 26630 ft 341 kts 238°
2026-04-30 15:08 40.48119 4.83041 25821 ft 335 kts 238°
2026-04-30 15:08 40.44060 4.75652 24639 ft 340 kts 237°
2026-04-30 15:09 40.41245 4.70518 23764 ft 351 kts 237°
2026-04-30 15:09 40.38389 4.65343 22853 ft 348 kts 237°
2026-04-30 15:10 40.35513 4.60141 22236 ft 358 kts 237°
2026-04-30 15:11 40.29680 4.49611 20917 ft 356 kts 236°
2026-04-30 15:11 40.26771 4.44383 20266 ft 354 kts 236°
2026-04-30 15:12 40.22445 4.36607 19294 ft 351 kts 236°
2026-04-30 15:13 40.19625 4.31428 18679 ft 347 kts 242°
2026-04-30 15:14 40.15251 4.20291 17678 ft 343 kts 244°
2026-04-30 15:14 40.12006 4.12000 16904 ft 340 kts 244°
2026-04-30 15:16 40.06674 3.98409 15644 ft 335 kts 244°
2026-04-30 15:17 40.02441 3.87665 14668 ft 331 kts 244°
2026-04-30 15:18 39.97210 3.74463 13450 ft 327 kts 244°
2026-04-30 15:19 39.94098 3.66640 12672 ft 317 kts 243°